Date String (YYYY-MM-DD hh:mm:ss) UTC,Instrument flags,absolute air pressure of the measurement (hPa),sample flow rate (lpm),inlet stack bypass flow (lpm),air temperature of the measurement (°C),ambient temperature measured by the external sensor (°C),aerosol sample conditioner tube jacket temperature (°C),OPC LED temperature (°C),internal box temperature (°C),relative humidity of the measurement (%),span deviation,mass concentration of particles derived from Lorenz-Mie calculation of OPC scattering (μg/m³),mass concentration of particles derived from Lorenz-Mie calculation of OPC scattering (μg/m³),mass concentration of particles derived from Lorenz-Mie calculation of OPC scattering (μg/m³)
DateTimeUTC,F1_M11,P_M11,Q1_M11,Q2_M11,T1_M11,T2_M11,T3_M11,T4_M11,T5_M11,U1_M11,ZSPAN_M11,X2_M11,X0_M11,X1_M11
2023-08-18 18:00:00,SystemResetWarning,0829.9,4.99,000.00,027.4,024.5,000.0,035.6,028.9,26.9,0000.0,0002.39,0007.32,0001.74
2023-08-18 18:01:00,SystemResetWarning,0829.8,5.01,000.00,027.4,024.4,000.0,035.6,028.8,27.5,0000.0,0002.38,0006.73,0001.73
2023-08-18 18:02:00,SystemResetWarning,0829.8,5.01,000.00,027.4,024.8,000.0,035.6,028.9,26.8,0000.0,0002.37,0005.60,0001.73
2023-08-18 18:03:00,SystemResetWarning,0829.8,5.00,000.00,027.4,025.2,000.0,035.6,029.0,27.2,0000.0,0002.36,0004.94,0001.73
2023-08-18 18:04:00,SystemResetWarning,0829.8,4.99,000.00,027.4,025.6,000.0,035.7,029.1,27.4,0000.0,0002.36,0004.48,0001.73
2023-08-18 18:05:00,SystemResetWarning,0829.8,5.00,000.00,027.5,025.7,000.0,035.7,029.2,26.6,0000.0,0002.33,0004.48,0001.72
2023-08-18 18:06:00,SystemResetWarning,0829.9,5.00,000.00,027.4,024.7,000.0,035.6,028.9,26.4,0000.0,0002.36,0004.60,0001.72
2023-08-18 18:07:00,SystemResetWarning,0829.8,5.01,000.00,027.4,024.1,000.0,035.5,028.8,26.8,0000.0,0002.36,0004.53,0001.73
2023-08-18 18:08:00,SystemResetWarning,0829.9,5.01,000.00,027.4,024.5,000.0,035.5,028.9,26.8,0000.0,0002.39,0004.53,0001.74
2023-08-18 18:09:00,SystemResetWarning,0829.9,5.00,000.00,027.4,024.9,000.0,035.6,028.9,26.7,0000.0,0002.45,0005.24,0001.75
2023-08-18 18:10:00,SystemResetWarning,0829.9,5.00,000.00,027.4,025.3,000.0,035.6,029.1,26.9,0000.0,0002.41,0004.65,0001.76
2023-08-18 18:11:00,SystemResetWarning,0830.0,4.99,000.00,027.4,025.7,000.0,035.7,029.2,26.9,0000.0,0002.39,0004.42,0001.77
2023-08-18 18:12:00,SystemResetWarning,0829.9,4.99,000.00,027.5,025.8,000.0,035.7,029.2,26.6,0000.0,0002.45,0005.12,0001.79
2023-08-18 18:13:00,SystemResetWarning,0829.9,4.99,000.00,027.5,024.8,000.0,035.6,028.9,26.9,0000.0,0002.47,0005.18,0001.79
2023-08-18 18:14:00,SystemResetWarning,0829.9,5.01,000.00,027.4,024.2,000.0,035.5,028.8,26.7,0000.0,0002.50,0005.22,0001.81
2023-08-18 18:15:00,SystemResetWarning,0830.0,5.00,000.00,027.4,024.6,000.0,035.5,028.9,26.6,0000.0,0002.55,0005.50,0001.81
2023-08-18 18:16:00,SystemResetWarning,0830.0,5.00,000.00,027.4,024.9,000.0,035.6,029.0,26.4,0000.0,0002.58,0005.65,0001.82
2023-08-18 18:17:00,SystemResetWarning,0830.0,5.00,000.00,027.4,025.3,000.0,035.6,029.1,26.6,0000.0,0002.55,0005.74,0001.82
2023-08-18 18:18:00,SystemResetWarning,0830.0,5.00,000.00,027.5,025.7,000.0,035.6,029.2,26.5,0000.0,0002.57,0005.99,0001.80
2023-08-18 18:19:00,SystemResetWarning,0830.0,4.98,000.00,027.5,025.0,000.0,035.6,029.0,26.4,0000.0,0002.57,0006.11,0001.80
2023-08-18 18:20:00,SystemResetWarning,0830.0,5.00,000.00,027.4,024.0,000.0,035.5,028.7,26.6,0000.0,0002.54,0005.68,0001.80
2023-08-18 18:21:00,SystemResetWarning,0830.0,5.02,000.00,027.3,024.2,000.0,035.5,028.8,26.4,0000.0,0002.55,0005.50,0001.81
2023-08-18 18:22:00,SystemResetWarning,0830.1,4.99,000.00,027.3,024.6,000.0,035.5,028.8,26.6,0000.0,0002.59,0005.72,0001.82
2023-08-18 18:23:00,SystemResetWarning,0830.0,5.00,000.00,027.3,025.0,000.0,035.6,028.9,26.6,0000.0,0002.58,0006.02,0001.82
2023-08-18 18:24:00,SystemResetWarning,0830.0,4.99,000.00,027.4,025.4,000.0,035.6,029.1,26.8,0000.0,0002.54,0006.03,0001.83
2023-08-18 18:25:00,SystemResetWarning,0830.0,5.00,000.00,027.4,025.7,000.0,035.6,029.2,26.8,0000.0,0002.58,0006.22,0001.83
2023-08-18 18:26:00,SystemResetWarning,0830.0,4.99,000.00,027.4,024.9,000.0,035.6,029.1,26.4,0000.0,0002.54,0006.01,0001.83
2023-08-18 18:27:00,SystemResetWarning,0830.0,5.01,000.00,027.3,023.9,000.0,035.5,028.8,26.9,0000.0,0002.49,0005.83,0001.84
2023-08-18 18:28:00,SystemResetWarning,0830.0,5.01,000.00,027.3,024.2,000.0,035.5,028.9,26.9,0000.0,0002.45,0005.55,0001.83
2023-08-18 18:29:00,SystemResetWarning,0830.0,4.99,000.00,027.3,024.7,000.0,035.5,028.9,26.5,0000.0,0002.46,0006.11,0001.85
2023-08-18 18:30:00,SystemResetWarning,0830.0,5.00,000.00,027.3,025.1,000.0,035.6,029.0,26.8,0000.0,0002.48,0006.57,0001.86
2023-08-18 18:31:00,SystemResetWarning,0830.0,5.01,000.00,027.4,025.5,000.0,035.6,029.1,26.7,0000.0,0002.47,0006.62,0001.85
2023-08-18 18:32:00,SystemResetWarning,0830.0,5.00,000.00,027.4,025.8,000.0,035.6,029.2,26.9,0000.0,0002.49,0006.65,0001.85
2023-08-18 18:33:00,SystemResetWarning,0830.0,4.98,000.00,027.5,025.7,000.0,035.6,029.2,26.8,0000.0,0002.54,0006.89,0001.86
2023-08-18 18:34:00,SystemResetWarning,0829.9,5.01,000.00,027.4,024.6,000.0,035.6,028.8,27.2,0000.0,0002.55,0006.37,0001.87
2023-08-18 18:35:00,SystemResetWarning,0830.0,5.01,000.00,027.3,024.3,000.0,035.5,028.7,26.8,0000.0,0002.51,0005.80,0001.85
2023-08-18 18:36:00,SystemResetWarning,0830.0,5.00,000.00,027.3,024.7,000.0,035.5,028.9,26.8,0000.0,0002.49,0006.23,0001.86
2023-08-18 18:37:00,SystemResetWarning,0829.9,5.00,000.00,027.3,025.1,000.0,035.6,028.9,27.2,0000.0,0002.50,0006.44,0001.86
2023-08-18 18:38:00,SystemResetWarning,0830.0,5.00,000.00,027.4,025.5,000.0,035.6,029.1,26.6,0000.0,0002.53,0007.08,0001.87
2023-08-18 18:39:00,SystemResetWarning,0830.0,4.99,000.00,027.4,025.7,000.0,035.6,029.2,26.2,0000.0,0002.56,0007.45,0001.87
2023-08-18 18:40:00,SystemResetWarning,0830.0,4.98,000.00,027.4,024.8,000.0,035.6,029.0,26.6,0000.0,0002.54,0007.46,0001.86
2023-08-18 18:41:00,SystemResetWarning,0830.0,5.01,000.00,027.4,024.0,000.0,035.5,028.8,27.0,0000.0,0002.49,0006.66,0001.85
2023-08-18 18:42:00,SystemResetWarning,0829.9,5.01,000.00,027.3,024.4,000.0,035.5,028.8,27.4,0000.0,0002.48,0006.49,0001.86
2023-08-18 18:43:00,SystemResetWarning,0829.9,5.00,000.00,027.3,024.7,000.0,035.5,028.9,27.0,0000.0,0002.49,0006.83,0001.86
2023-08-18 18:44:00,SystemResetWarning,0829.9,5.00,000.00,027.3,025.1,000.0,035.6,029.0,27.2,0000.0,0002.45,0007.20,0001.84
2023-08-18 18:45:00,SystemResetWarning,0829.9,4.99,000.00,027.4,025.6,000.0,035.6,029.1,27.0,0000.0,0002.36,0007.41,0001.83
2023-08-18 18:46:00,SystemResetWarning,0829.9,5.00,000.00,027.4,025.8,000.0,035.6,029.2,27.4,0000.0,0002.41,0007.57,0001.84
2023-08-18 18:47:00,SystemResetWarning,0829.8,4.99,000.00,027.4,024.8,000.0,035.6,029.0,27.4,0000.0,0002.46,0007.46,0001.85
2023-08-18 18:48:00,SystemResetWarning,0829.8,5.00,000.00,027.4,024.1,000.0,035.5,028.9,27.3,0000.0,0002.48,0007.22,0001.85
2023-08-18 18:49:00,SystemResetWarning,0829.8,5.01,000.00,027.4,024.5,000.0,035.5,028.9,26.8,0000.0,0002.46,0006.77,0001.85
2023-08-18 18:50:00,SystemResetWarning,0829.7,5.00,000.00,027.3,024.9,000.0,035.5,029.0,26.9,0000.0,0002.41,0006.28,0001.84
2023-08-18 18:51:00,SystemResetWarning,0829.7,5.00,000.00,027.4,025.3,000.0,035.6,029.0,27.0,0000.0,0002.40,0005.42,0001.84
2023-08-18 18:52:00,SystemResetWarning,0829.7,5.00,000.00,027.4,025.7,000.0,035.6,029.2,26.9,0000.0,0002.41,0005.79,0001.85
2023-08-18 18:53:00,SystemResetWarning,0829.8,4.99,000.00,027.4,025.2,000.0,035.6,029.1,26.5,0000.0,0002.44,0005.84,0001.87
2023-08-18 18:54:00,SystemResetWarning,0829.8,4.99,000.00,027.4,024.1,000.0,035.5,028.8,26.3,0000.0,0002.45,0005.84,0001.87
2023-08-18 18:55:00,SystemResetWarning,0829.7,5.02,000.00,027.3,024.2,000.0,035.5,028.8,26.7,0000.0,0002.42,0005.07,0001.87
2023-08-18 18:56:00,SystemResetWarning,0829.8,4.99,000.00,027.3,024.6,000.0,035.5,028.9,26.8,0000.0,0002.43,0004.22,0001.88
2023-08-18 18:57:00,SystemResetWarning,0829.8,5.00,000.00,027.3,025.0,000.0,035.5,028.9,26.9,0000.0,0002.46,0004.12,0001.89
2023-08-18 18:58:00,SystemResetWarning,0829.8,5.00,000.00,027.4,025.5,000.0,035.6,029.1,27.0,0000.0,0002.39,0003.82,0001.89
2023-08-18 18:59:00,SystemResetWarning,0829.8,5.01,000.00,027.4,025.8,000.0,035.6,029.2,26.9,0000.0,0002.31,0003.72,0001.88
